Showing default

KUIPER-00071, 64818

Orbit data source: Space-Track

KUIPER-00071, 64818 is a payload satellite owned by Kuiper Systems (US) in LEO that was launched on Wed, 16 Jul 2025 UTC via an FALCON 9 launch vehicle from the Air Force Eastern Test Range (AFETR). Payload-class satellites include a variety of spacecraft equipped with specific instruments for various scientific and technological missions. These include communications satellites like Starlink; space stations such as the ISS; scientific satellites like the Hubble; Earth observation satellites from companies like Planet Labs, Umbra, and HawkEye 360; GPS; miniature CubeSats for education and research; and military/defense satellites.

Loading next visibility...
Identifier
64818, 2025-151C
Orbit
LEO
Country
Flag of USUS
Related business
Manufacturer
Kuiper Systems
Mission
Operational Commercial Communications
Bus & Motor
KUIPER, Unknown motor
Mass
~490 kg wet, ~490 kg dry
Launch date (UTC)
2025-07-16 (11 months ago)
Launch vehicle
FALCON 9
Launch site
Air Force Eastern Test Range (AFETR)
Object type
Payload
Rocket body
Debris
Shape & HBR
Box + 2 Pan, 3.4 m
Radar Cross Section
2.326 m², Large (>1 m²)

Expand to show TLE details & history
Last TLE update: 1 day ago

TLE from 1 day ago
0 KUIPER-00071
1 64818U 25151C   26168.39783748  .00002080  00000-0  30204-3 0  9995
2 64818  51.9005 222.1852 0000166  88.1526 271.9455 14.79881536 50037
Epoch: 2026-06-17T09:32Z
TLE epoch observation values (Epoch: 2026-06-17T09:32:53.158Z)
Latitude
-0.00004°
Longitude
173.30758°
Altitude
630.441 km
Speed
7.544 km/s
True Right ascension
14h 48m 44s
True Declination
0° 00' 00"
Sunlit
Object was in full shadow at epoch
Visualization orbit readout
Latitude
Unknown
Longitude
Unknown
Altitude
Unknown
Speed
Unknown
Apparent Right ascension
Unknown
Apparent Declination
Unknown
Sunlit
N/A
Visualization observer readout
Local Sidereal Time
20:27:31
Azimuth
Unknown
Elevation
Unknown
Doppler factor
Unknown
Orbital elements
Apogee altitude
630.266 km
Perigee altitude
630.033 km
Semi-major axis
7,008.286 km
Eccentricity
0.00002
Inclination
51.9005°
RAAN
222.1852°
Arg. of periapsis
88.1526°
True anomaly
271.9436°
Mean anomaly
271.9455°
Eccentric anomaly
271.94455°
Mean motion
3.69935 °/min
Orbital period
97.31 mins
BSTAR
0.00030204
Loading maneuver chart data...
Computing Atmospheric mass density...
Loading historical data...
Loading historical data...
Loading historical data...
Loading historical data...
Loading historical data...
Loading historical data...
Loading historical data...

Documentation

Showing up to 5 results
|